KC7RJK-2 Weather Reports


Display with metric or nautical units.
time (UTC)temp
F
wind
direction
speed
MPH
gust
MPH
rain 1hr
in
rain 24hr
in
rain mn
in
humidity
%
barometer
mb
20170726103518 60 337 0.0 0.0 0.00 0.00 0.00 82 1016.7
20170726102519 61 337 0.0 0.0 0.00 0.00 0.00 81 1016.8
20170726101519 61 337 0.0 0.0 0.00 0.00 0.00 82 1016.7
20170726100519 61 337 0.0 0.0 0.00 0.00 0.00 81 1016.7
20170726095518 61 337 0.0 0.0 0.00 0.00 0.00 80 1016.7
20170726094518 62 337 0.0 0.0 0.00 0.00 0.00 79 1016.6
20170726093518 62 337 0.0 0.0 0.00 0.00 0.00 79 1016.5
20170726092519 62 337 0.0 0.0 0.00 0.00 0.00 78 1016.5
20170726091519 62 337 0.0 0.0 0.00 0.00 0.00 77 1016.5
20170726090518 63 337 0.0 0.0 0.00 0.00 0.00 76 1016.4
20170726085518 63 337 0.0 0.0 0.00 0.00 0.00 75 1016.4
20170726084518 63 337 0.0 3.0 0.00 0.00 0.00 75 1016.3
20170726083518 64 353 0.0 0.0 0.00 0.00 0.00 75 1016.3
20170726082518 64 356 0.0 0.0 0.00 0.00 0.00 74 1016.3
20170726081518 65 356 0.0 4.0 0.00 0.00 0.00 73 1016.4
20170726080518 65 49 2.0 3.0 0.00 0.00 0.00 73 1016.4
20170726075518 66 47 0.0 3.0 0.00 0.00 0.00 72 1016.3
20170726074518 66 42 3.0 4.0 0.00 0.00 0.00 71 1016.4
20170726073518 67 27 0.0 0.0 0.00 0.00 0.00 71 1016.3
20170726072518 67 27 0.0 3.0 0.00 0.00 0.00 70 1016.0
20170726071518 67 30 0.0 0.0 0.00 0.00 0.00 70 1016.2
20170726070518 68 30 0.0 0.0 0.00 0.00 0.00 70 1016.1
20170726065518 68 30 0.0 0.0 0.00 0.00 0.00 69 1016.0
20170726064528 68 30 0.0 0.0 0.00 0.00 0.00 69 1015.9
20170726063518 69 30 0.0 5.0 0.00 0.00 0.00 68 1015.8
20170726062524 70 345 0.0 3.0 0.00 0.00 0.00 68 1015.9
20170726061518 70 339 1.0 5.0 0.00 0.00 0.00 67 1015.9
20170726060518 71 266 3.0 4.0 0.00 0.00 0.00 66 1015.8
20170726055518 71 255 0.0 0.0 0.00 0.00 0.00 67 1015.8
20170726054518 72 276 0.0 0.0 0.00 0.00 0.00 66 1015.6
20170726053518 72 358 0.0 0.0 0.00 0.00 0.00 65 1015.4
20170726052518 73 17 0.0 0.0 0.00 0.00 0.00 66 1015.3
20170726051518 73 203 0.0 0.0 0.00 0.00 0.00 65 1015.1
20170726050518 74 200 0.0 2.0 0.00 0.00 0.00 64 1015.1
20170726045518 74 197 2.0 3.0 0.00 0.00 0.00 62 1015.0
20170726044518 74 21 0.0 0.0 0.00 0.00 0.00 62 1014.9
20170726043518 75 31 0.0 5.0 0.00 0.00 0.00 61 1014.5
20170726042518 76 59 3.0 4.0 0.00 0.00 0.00 60 1014.3
20170726041517 76 54 3.0 5.0 0.00 0.00 0.00 58 1014.3
20170726040518 77 48 3.0 5.0 0.00 0.00 0.00 57 1014.2
20170726035517 78 61 3.0 4.0 0.00 0.00 0.00 55 1014.1
20170726034517 79 59 2.0 3.0 0.00 0.00 0.00 53 1014.0
20170726033517 80 332 0.0 6.0 0.00 0.00 0.00 50 1013.9
20170726032517 82 7 3.0 5.0 0.00 0.00 0.00 49 1013.8
20170726031517 82 7 2.0 6.0 0.00 0.00 0.00 48 1013.6
20170726030517 83 360 3.0 5.0 0.00 0.00 0.00 47 1013.5
20170726025517 84 323 2.0 6.0 0.00 0.00 0.00 45 1013.4
20170726024517 84 351 2.0 6.0 0.00 0.00 0.00 43 1013.4
20170726023517 85 27 3.0 7.0 0.00 0.00 0.00 42 1013.4
20170726022518 86 12 0.0 7.0 0.00 0.00 0.00 41 1013.5
20170726021517 87 312 6.0 7.0 0.00 0.00 0.00 41 1013.4
20170726020517 88 353 3.0 10.0 0.00 0.00 0.00 38 1013.3
20170726015517 89 344 5.0 7.0 0.00 0.00 0.00 35 1013.4
20170726014517 89 327 5.0 8.0 0.00 0.00 0.00 38 1013.3
20170726013517 90 17 4.0 10.0 0.00 0.00 0.00 33 1013.4
20170726012517 90 7 2.0 6.0 0.00 0.00 0.00 34 1013.3
20170726011517 90 318 3.0 9.0 0.00 0.00 0.00 34 1013.3
20170726010517 90 326 2.0 9.0 0.00 0.00 0.00 34 1013.4
20170726005517 90 334 3.0 9.0 0.00 0.00 0.00 32 1013.4
20170726004517 90 355 4.0 10.0 0.00 0.00 0.00 32 1013.6
20170726003517 91 38 3.0 10.0 0.00 0.00 0.00 30 1013.6
20170726002517 90 50 5.0 10.0 0.00 0.00 0.00 31 1013.7
20170726001517 91 75 1.0 9.0 0.00 0.00 0.00 31 1013.9
20170726000517 91 33 0.0 10.0 0.00 0.00 0.00 29 1013.8
20170725235517 91 25 5.0 8.0 0.00 0.00 0.00 28 1013.9
20170725234517 93 342 3.0 9.0 0.00 0.00 0.00 27 1014.0
20170725233517 92 7 9.0 12.0 0.00 0.00 0.00 27 1014.0
20170725232517 91 273 3.0 10.0 0.00 0.00 0.00 28 1013.9
20170725231517 92 347 0.0 12.0 0.00 0.00 0.00 28 1014.0
20170725230517 92 33 9.0 11.0 0.00 0.00 0.00 27 1014.3
20170725225517 91 360 9.0 11.0 0.00 0.00 0.00 27 1014.2
20170725224517 91 7 9.0 13.0 0.00 0.00 0.00 29 1014.1
20170725223517 91 2 8.0 11.0 0.00 0.00 0.00 29 1014.2
20170725222517 90 23 4.0 11.0 0.00 0.00 0.00 31 1014.4
20170725221517 90 17 4.0 11.0 0.00 0.00 0.00 31 1014.5
20170725220517 89 44 1.0 9.0 0.00 0.00 0.00 32 1014.6
20170725215517 88 17 8.0 11.0 0.00 0.00 0.00 32 1014.7
20170725214517 87 7 6.0 10.0 0.00 0.00 0.00 35 1014.8
20170725213517 86 341 2.0 12.0 0.00 0.00 0.00 34 1014.9
20170725212517 85 318 2.0 10.0 0.00 0.00 0.00 37 1015.0
20170725211517 85 28 3.0 8.0 0.00 0.00 0.00 37 1015.1
20170725210516 85 358 5.0 10.0 0.00 0.00 0.00 36 1015.1
20170725205517 85 12 2.0 11.0 0.00 0.00 0.00 34 1015.2
20170725204516 86 7 4.0 10.0 0.00 0.00 0.00 37 1015.2
20170725203516 85 347 0.0 8.0 0.00 0.00 0.00 38 1015.3
20170725202516 85 7 3.0 9.0 0.00 0.00 0.00 42 1015.4
20170725201516 84 355 6.0 10.0 0.00 0.00 0.00 43 1015.5
20170725200516 83 352 5.0 11.0 0.00 0.00 0.00 41 1015.5
20170725195517 83 315 3.0 10.0 0.00 0.00 0.00 41 1015.6
20170725194516 82 36 3.0 8.0 0.00 0.00 0.00 44 1015.8
20170725193516 81 315 1.0 8.0 0.00 0.00 0.00 44 1015.8
20170725192516 81 42 3.0 9.0 0.00 0.00 0.00 44 1015.9
20170725191516 81 325 4.0 11.0 0.00 0.00 0.00 47 1015.9
20170725190516 81 356 3.0 8.0 0.00 0.00 0.00 46 1016.0
20170725185516 80 66 0.0 10.0 0.00 0.00 0.00 45 1016.1
20170725184516 79 337 0.0 9.0 0.00 0.00 0.00 48 1016.3
20170725183516 78 324 2.0 6.0 0.00 0.00 0.00 49 1016.3
20170725182516 78 337 0.0 10.0 0.00 0.00 0.00 48 1016.3
20170725181516 78 32 3.0 9.0 0.00 0.00 0.00 50 1016.3
20170725180516 78 58 4.0 9.0 0.00 0.00 0.00 50 1016.3
20170725175516 77 46 2.0 10.0 0.00 0.00 0.00 50 1016.3
20170725174516 76 40 6.0 9.0 0.00 0.00 0.00 55 1016.3
20170725173516 76 17 0.0 7.0 0.00 0.00 0.00 52 1016.2
20170725172516 75 54 5.0 7.0 0.00 0.00 0.00 56 1016.3
20170725171516 74 12 5.0 6.0 0.00 0.00 0.00 56 1016.3
20170725170516 73 2 4.0 5.0 0.00 0.00 0.00 60 1016.3
20170725165516 72 336 3.0 3.0 0.00 0.00 0.00 61 1016.3
20170725164516 71 44 0.0 5.0 0.00 0.00 0.00 62 1016.3
20170725163516 70 27 0.0 5.0 0.00 0.00 0.00 65 1016.3
20170725162516 69 86 0.0 0.0 0.00 0.00 0.00 68 1016.3
20170725161516 68 54 0.0 4.0 0.00 0.00 0.00 69 1016.3
20170725160516 68 64 0.0 4.0 0.00 0.00 0.00 70 1016.3
20170725155516 67 44 0.0 3.0 0.00 0.00 0.00 70 1016.3
20170725154516 65 54 0.0 5.0 0.00 0.00 0.00 73 1016.2
20170725153516 64 40 4.0 5.0 0.00 0.00 0.00 75 1016.2
20170725152516 62 32 2.0 4.0 0.00 0.00 0.00 78 1016.1
20170725151516 60 357 0.0 3.0 0.00 0.00 0.00 84 1016.2
20170725150516 59 7 0.0 3.0 0.00 0.00 0.00 86 1016.1
20170725145516 58 282 0.0 0.0 0.00 0.00 0.00 89 1016.0
20170725144516 57 281 0.0 0.0 0.00 0.00 0.00 90 1015.9
20170725143516 56 281 0.0 0.0 0.00 0.00 0.00 92 1015.9
20170725142516 55 281 0.0 0.0 0.00 0.00 0.00 94 1015.8
20170725141516 55 281 0.0 0.0 0.00 0.00 0.00 94 1015.8
20170725140516 54 281 0.0 0.0 0.00 0.00 0.00 94 1015.8
20170725135516 54 281 0.0 0.0 0.00 0.00 0.00 94 1015.7
20170725134515 54 281 0.0 0.0 0.00 0.00 0.00 94 1015.6
20170725133516 54 281 0.0 0.0 0.00 0.00 0.00 94 1015.5
20170725132516 54 281 0.0 0.0 0.00 0.00 0.00 94 1015.5
20170725131515 54 281 0.0 0.0 0.00 0.00 0.00 94 1015.5
20170725130515 54 281 0.0 0.0 0.00 0.00 0.00 93 1015.6
20170725125516 54 281 0.0 0.0 0.00 0.00 0.00 92 1015.5
20170725124516 54 281 0.0 0.0 0.00 0.00 0.00 92 1015.4
20170725123515 55 281 0.0 0.0 0.00 0.00 0.00 92 1015.2
20170725122515 55 281 0.0 0.0 0.00 0.00 0.00 91 1015.2
20170725121515 55 281 0.0 0.0 0.00 0.00 0.00 90 1015.2
20170725120515 56 281 0.0 0.0 0.00 0.00 0.00 90 1015.1
20170725115515 56 281 0.0 0.0 0.00 0.00 0.00 90 1015.0
20170725114515 56 281 0.0 0.0 0.00 0.00 0.00 89 1014.9
20170725113515 57 281 0.0 0.0 0.00 0.00 0.00 88 1014.9
20170725112515 57 281 0.0 0.0 0.00 0.00 0.00 88 1014.8
20170725111515 57 281 0.0 0.0 0.00 0.00 0.00 88 1014.8
20170725110515 58 281 0.0 0.0 0.00 0.00 0.00 88 1014.8
20170725105515 58 281 0.0 0.0 0.00 0.00 0.00 87 1014.7
20170725104515 58 281 0.0 0.0 0.00 0.00 0.00 87 1014.7